This is the latest recevied weather packets stored in our database for station/object NR0A-4. If no packets are shown the sender has not sent any weather packets the latest 10 day(s).
| Time | Temp. | Humidity | Pressure | Rain* | Wind** | Luminosity | Snow |
|---|---|---|---|---|---|---|---|
| 1788312904 | 27.78° C | 74% | 1010.9 hPa | 0 mm | - | 0 W/m² | - |
| 1788312604 | 27.78° C | 73% | 1011.1 hPa | 0 mm | - | 0 W/m² | - |
| 1788312304 | 28.33° C | 73% | 1011 hPa | 0 mm | - | 0 W/m² | - |
| 1788312004 | 28.33° C | 72% | 1010.6 hPa | 0 mm | - | 0 W/m² | - |
| 1788311704 | 28.33° C | 72% | 1010.6 hPa | 0 mm | - | 0 W/m² | - |
| 1788311404 | 28.33° C | 71% | 1010.6 hPa | 0 mm | - | 0 W/m² | - |
| 1788311104 | 28.89° C | 71% | 1010.5 hPa | 0 mm | - | 0 W/m² | - |
| 1788310804 | 28.89° C | 71% | 1010.5 hPa | 0 mm | - | 5 W/m² | - |
| 1788310504 | 28.89° C | 71% | 1010.6 hPa | 0 mm | - | 7 W/m² | - |
| 1788310204 | 28.89° C | 70% | 1010.8 hPa | 0 mm | - | 14 W/m² | - |
| 1788309904 | 29.44° C | 69% | 1010.8 hPa | 0 mm | - | 19 W/m² | - |
| 1788309604 | 29.44° C | 70% | 1011.1 hPa | 0 mm | - | 23 W/m² | - |
| 1788309304 | 29.44° C | 68% | 1011.2 hPa | 0 mm | - | 26 W/m² | - |
| 1788309003 | 29.44° C | 69% | 1011.3 hPa | 0 mm | - | 32 W/m² | - |
| 1788308703 | 29.44° C | 67% | 1011.2 hPa | 0 mm | - | 33 W/m² | - |
| 1788308404 | 29.44° C | 68% | 1011.2 hPa | 0 mm | - | 40 W/m² | - |
| 1788308104 | 30° C | 67% | 1011 hPa | 0 mm | - | 44 W/m² | - |
| 1788307804 | 30° C | 67% | 1010.9 hPa | 0 mm | - | 49 W/m² | - |
| 1788307504 | 30° C | 67% | 1010.9 hPa | 0 mm | - | 56 W/m² | - |
| 1788307204 | 30° C | 66% | 1010.8 hPa | 0 mm | - | 76 W/m² | - |
| 1788306903 | 30° C | 66% | 1010.8 hPa | 0 mm | - | 93 W/m² | - |
| 1788306604 | 30° C | 65% | 1010.7 hPa | 0 mm | - | 98 W/m² | - |
| 1788306303 | 30° C | 66% | 1010.6 hPa | 0 mm | - | 109 W/m² | - |
| 1788306003 | 30° C | 65% | 1010.6 hPa | 0 mm | - | 102 W/m² | - |
| 1788305704 | 30° C | 65% | 1010.5 hPa | 0 mm | - | 100 W/m² | - |
* Rain latest hour (hover to see other rain measurements)
** Current wind speed in m/s (hover to see current wind gust speed)